EWG42B EDDV-EDDF

Flight info

Callsign EWG42B
Flight time 0h 36m
Altitude 21000
Route TOLTA T154 ROBAR T152 KERAX KERAX5A
Aircraft A20N/M-SDE2E3FGHIRWXY/LB1

Departure

Time 2026-05-03 20:39
Airport Hannover Airport (EDDV)

Arrival

Time 2026-05-03 21:16
Airport Frankfurt Main Airport (EDDF)
Time Latitude Longitude Altitude Speed Heading
2026-05-03 20:15 52.45770 9.69581 178 ft 0 kts 52°
2026-05-03 20:30 52.45762 9.69563 178 ft 2 kts 54°
2026-05-03 20:31 52.45752 9.69542 178 ft 2 kts 56°
2026-05-03 20:31 52.45744 9.69519 178 ft 2 kts 61°
2026-05-03 20:31 52.45737 9.69494 178 ft 2 kts 75°
2026-05-03 20:31 52.45736 9.69468 178 ft 2 kts 117°
2026-05-03 20:32 52.45742 9.69453 178 ft 1 kts 132°
2026-05-03 20:32 52.45743 9.69451 178 ft 0 kts 132°
2026-05-03 20:34 52.45742 9.69453 178 ft 1 kts 132°
2026-05-03 20:34 52.45727 9.69475 178 ft 5 kts 143°
2026-05-03 20:35 52.45704 9.69496 178 ft 7 kts 150°
2026-05-03 20:35 52.45678 9.69569 178 ft 9 kts 90°
2026-05-03 20:35 52.45675 9.69692 178 ft 13 kts 93°
2026-05-03 20:35 52.45670 9.69851 178 ft 16 kts 93°
2026-05-03 20:36 52.45664 9.70048 178 ft 19 kts 92°
2026-05-03 20:36 52.45659 9.70277 178 ft 21 kts 93°
2026-05-03 20:36 52.45651 9.70534 178 ft 24 kts 93°
2026-05-03 20:36 52.45591 9.70687 178 ft 16 kts 155°
2026-05-03 20:37 52.45576 9.70738 178 ft 5 kts 94°
2026-05-03 20:37 52.45573 9.70842 178 ft 13 kts 92°
2026-05-03 20:37 52.45566 9.71017 178 ft 16 kts 108°
2026-05-03 20:37 52.45473 9.71105 180 ft 16 kts 182°
2026-05-03 20:38 52.45409 9.71086 188 ft 6 kts 227°
2026-05-03 20:38 52.45404 9.71045 185 ft 0 kts 270°
2026-05-03 20:38 52.45404 9.71027 195 ft 8 kts 272°
2026-05-03 20:39 52.45416 9.70565 183 ft 75 kts 273°
2026-05-03 20:39 52.45449 9.69382 184 ft 130 kts 273°
2026-05-03 20:39 52.45500 9.67817 591 ft 136 kts 270°
2026-05-03 20:39 52.45548 9.66250 1156 ft 138 kts 269°
2026-05-03 20:40 52.45584 9.64730 1885 ft 130 kts 268°
2026-05-03 20:40 52.45617 9.63172 2359 ft 143 kts 268°
2026-05-03 20:40 52.45651 9.61474 2763 ft 158 kts 268°
2026-05-03 20:40 52.45692 9.59552 3128 ft 178 kts 268°
2026-05-03 20:41 52.45742 9.57398 3526 ft 198 kts 268°
2026-05-03 20:41 52.45703 9.55146 3763 ft 196 kts 253°
2026-05-03 20:41 52.45099 9.53212 3857 ft 192 kts 229°
2026-05-03 20:41 52.43994 9.51907 4157 ft 200 kts 212°
2026-05-03 20:42 52.42777 9.50789 5067 ft 198 kts 212°
2026-05-03 20:42 52.41580 9.49658 6062 ft 200 kts 212°
2026-05-03 20:42 52.40376 9.48512 6900 ft 205 kts 212°
2026-05-03 20:42 52.39128 9.47326 7766 ft 208 kts 212°
2026-05-03 20:43 52.37859 9.46124 8611 ft 213 kts 212°
2026-05-03 20:43 52.36553 9.44888 9270 ft 222 kts 212°
2026-05-03 20:43 52.35227 9.43636 9374 ft 218 kts 212°
2026-05-03 20:43 52.33903 9.42449 9488 ft 222 kts 205°
2026-05-03 20:44 52.32364 9.41853 9886 ft 233 kts 187°
2026-05-03 20:44 52.30725 9.42037 10671 ft 240 kts 179°
2026-05-03 20:44 52.28995 9.42313 11111 ft 261 kts 179°
2026-05-03 20:44 52.27096 9.42586 11464 ft 285 kts 179°
2026-05-03 20:45 52.25040 9.42879 11775 ft 308 kts 179°
2026-05-03 20:45 52.22843 9.43201 12098 ft 329 kts 178°
2026-05-03 20:45 52.20529 9.43551 12860 ft 334 kts 178°
2026-05-03 20:45 52.18193 9.43909 13726 ft 338 kts 178°
2026-05-03 20:46 52.15838 9.44267 14459 ft 341 kts 178°
2026-05-03 20:46 52.13490 9.44620 15178 ft 345 kts 178°
2026-05-03 20:46 52.11088 9.44979 15885 ft 349 kts 178°
2026-05-03 20:46 52.08643 9.45345 16636 ft 352 kts 179°
2026-05-03 20:47 52.06178 9.45712 17376 ft 355 kts 179°
2026-05-03 20:47 52.03728 9.46077 18101 ft 358 kts 179°
2026-05-03 20:47 52.01229 9.46448 18757 ft 361 kts 179°
2026-05-03 20:47 51.98718 9.46821 19442 ft 362 kts 179°
2026-05-03 20:48 51.96230 9.47189 20097 ft 364 kts 179°
2026-05-03 20:48 51.93696 9.47564 20470 ft 367 kts 179°
2026-05-03 20:48 51.91139 9.47942 20581 ft 367 kts 179°
2026-05-03 20:48 51.88597 9.48318 20682 ft 366 kts 179°
2026-05-03 20:49 51.86046 9.48696 20790 ft 367 kts 179°
2026-05-03 20:49 51.83527 9.49067 20896 ft 367 kts 179°
2026-05-03 20:49 51.80981 9.49442 20943 ft 368 kts 179°
2026-05-03 20:49 51.78430 9.49817 20949 ft 368 kts 179°
2026-05-03 20:50 51.75883 9.50193 20952 ft 367 kts 179°
2026-05-03 20:50 51.73337 9.50566 20954 ft 367 kts 179°
2026-05-03 20:50 51.70820 9.50760 20957 ft 364 kts 186°
2026-05-03 20:50 51.68335 9.50140 20959 ft 360 kts 198°
2026-05-03 20:51 51.66009 9.48683 20949 ft 358 kts 209°
2026-05-03 20:51 51.63855 9.46655 20968 ft 357 kts 211°
2026-05-03 20:51 51.61552 9.45151 20960 ft 360 kts 195°
2026-05-03 20:51 51.59062 9.44449 20959 ft 362 kts 192°
2026-05-03 20:52 51.56576 9.44107 20962 ft 364 kts 185°
2026-05-03 20:52 51.54035 9.44033 20965 ft 365 kts 184°
2026-05-03 20:52 51.51489 9.43974 20967 ft 365 kts 184°
2026-05-03 20:52 51.48948 9.43917 20964 ft 365 kts 184°
2026-05-03 20:53 51.46436 9.43858 20966 ft 364 kts 184°
2026-05-03 20:53 51.43895 9.43795 20964 ft 365 kts 184°
2026-05-03 20:53 51.41358 9.43730 20975 ft 365 kts 184°
2026-05-03 20:53 51.38804 9.43665 20973 ft 366 kts 184°
2026-05-03 20:54 51.36248 9.43600 20970 ft 366 kts 184°
2026-05-03 20:54 51.31176 9.43472 20962 ft 366 kts 184°
2026-05-03 20:54 51.28623 9.43407 20957 ft 366 kts 184°
2026-05-03 20:55 51.26074 9.43342 20956 ft 366 kts 184°
2026-05-03 20:55 51.23529 9.43278 20962 ft 366 kts 184°
2026-05-03 20:55 51.20978 9.43213 20963 ft 366 kts 184°
2026-05-03 20:55 51.18426 9.43148 20949 ft 366 kts 184°
2026-05-03 20:56 51.15903 9.43084 20958 ft 367 kts 184°
2026-05-03 20:56 51.13341 9.43019 20963 ft 367 kts 184°
2026-05-03 20:56 51.10786 9.42955 20963 ft 367 kts 184°
2026-05-03 20:56 51.08228 9.42890 20967 ft 367 kts 184°
2026-05-03 20:57 51.05670 9.42826 20968 ft 367 kts 184°
2026-05-03 20:57 51.03137 9.42763 20967 ft 367 kts 184°
2026-05-03 20:57 51.00582 9.42699 20973 ft 366 kts 184°
2026-05-03 20:57 50.98026 9.42636 20971 ft 367 kts 184°
2026-05-03 20:58 50.95502 9.42572 20963 ft 366 kts 184°
2026-05-03 20:58 50.92941 9.42507 20918 ft 367 kts 184°
2026-05-03 20:58 50.90380 9.42443 20694 ft 366 kts 184°
2026-05-03 20:58 50.87840 9.42360 20320 ft 363 kts 185°
2026-05-03 20:59 50.85306 9.42263 19714 ft 364 kts 185°
2026-05-03 20:59 50.82793 9.42162 19074 ft 365 kts 185°
2026-05-03 20:59 50.80260 9.42064 18527 ft 363 kts 185°
2026-05-03 20:59 50.77724 9.41972 17940 ft 361 kts 185°
2026-05-03 21:00 50.75238 9.41882 17374 ft 358 kts 185°
2026-05-03 21:00 50.73595 9.41819 16981 ft 355 kts 185°
2026-05-03 21:00 50.70288 9.41686 16217 ft 353 kts 185°
2026-05-03 21:00 50.67835 9.41581 15673 ft 350 kts 184°
2026-05-03 21:01 50.65401 9.41568 15137 ft 349 kts 182°
2026-05-03 21:01 50.63007 9.41616 14611 ft 347 kts 182°
2026-05-03 21:01 50.60591 9.41639 14087 ft 345 kts 183°
2026-05-03 21:01 50.58198 9.41626 13541 ft 342 kts 183°
2026-05-03 21:02 50.55822 9.41588 13049 ft 338 kts 184°
2026-05-03 21:02 50.53509 9.41539 12582 ft 333 kts 184°
2026-05-03 21:02 50.51199 9.41483 12102 ft 329 kts 184°
2026-05-03 21:02 50.48911 9.41425 11642 ft 325 kts 184°
2026-05-03 21:03 50.46693 9.41371 11233 ft 320 kts 184°
2026-05-03 21:03 50.44485 9.41318 10677 ft 314 kts 185°
2026-05-03 21:03 50.42324 9.41265 10160 ft 305 kts 185°
2026-05-03 21:03 50.40270 9.41221 9983 ft 284 kts 185°
2026-05-03 21:04 50.38362 9.41180 9788 ft 266 kts 185°
2026-05-03 21:04 50.36536 9.41135 9266 ft 259 kts 186°
2026-05-03 21:04 50.34737 9.41087 8717 ft 256 kts 186°
2026-05-03 21:04 50.32983 9.41027 8142 ft 253 kts 190°
2026-05-03 21:05 50.31369 9.40187 7560 ft 243 kts 216°
2026-05-03 21:05 50.30234 9.38262 7174 ft 241 kts 233°
2026-05-03 21:05 50.29272 9.36116 6800 ft 240 kts 234°
2026-05-03 21:05 50.28314 9.33987 6466 ft 236 kts 233°
2026-05-03 21:06 50.27368 9.31888 5973 ft 240 kts 233°
2026-05-03 21:06 50.26386 9.29698 5137 ft 255 kts 234°
2026-05-03 21:06 50.25349 9.27424 5036 ft 270 kts 233°
2026-05-03 21:06 50.24211 9.24946 5011 ft 287 kts 233°
2026-05-03 21:07 50.23052 9.22377 4979 ft 286 kts 234°
2026-05-03 21:07 50.21943 9.19889 4876 ft 279 kts 235°
2026-05-03 21:07 50.20817 9.17416 4485 ft 277 kts 234°
2026-05-03 21:07 50.19722 9.15010 4352 ft 264 kts 237°
2026-05-03 21:08 50.18821 9.12596 4232 ft 251 kts 244°
2026-05-03 21:08 50.18131 9.10152 4125 ft 239 kts 248°
2026-05-03 21:08 50.17454 9.07858 4004 ft 228 kts 237°
2026-05-03 21:08 50.16364 9.06004 3998 ft 237 kts 220°
2026-05-03 21:09 50.15054 9.04443 3994 ft 235 kts 226°
2026-05-03 21:09 50.14104 9.02478 3992 ft 223 kts 243°
2026-05-03 21:09 50.13640 9.00257 3990 ft 210 kts 261°
2026-05-03 21:09 50.13373 8.97984 3992 ft 214 kts 252°
2026-05-03 21:10 50.12872 8.95802 4000 ft 213 kts 249°
2026-05-03 21:10 50.12364 8.93658 4001 ft 213 kts 249°
2026-05-03 21:10 50.11846 8.91485 3999 ft 212 kts 249°
2026-05-03 21:10 50.11336 8.89344 4001 ft 214 kts 249°
2026-05-03 21:11 50.10830 8.87220 3997 ft 202 kts 249°
2026-05-03 21:11 50.10352 8.85217 3900 ft 192 kts 249°
2026-05-03 21:11 50.09893 8.83294 3655 ft 187 kts 249°
2026-05-03 21:11 50.09443 8.81409 3412 ft 184 kts 249°
2026-05-03 21:12 50.09002 8.79560 3180 ft 181 kts 250°
2026-05-03 21:12 50.08571 8.77754 2933 ft 179 kts 250°
2026-05-03 21:12 50.08139 8.75944 2699 ft 176 kts 250°
2026-05-03 21:12 50.07719 8.74187 2489 ft 169 kts 250°
2026-05-03 21:13 50.07315 8.72494 2255 ft 170 kts 249°
2026-05-03 21:13 50.06912 8.70808 2017 ft 159 kts 250°
2026-05-03 21:13 50.06546 8.69273 1809 ft 144 kts 249°
2026-05-03 21:13 50.06209 8.67863 1630 ft 138 kts 249°
2026-05-03 21:14 50.05861 8.66383 1430 ft 145 kts 250°
2026-05-03 21:14 50.05547 8.64924 1165 ft 139 kts 250°
2026-05-03 21:14 50.05205 8.63504 1085 ft 142 kts 248°
2026-05-03 21:14 50.04839 8.62073 919 ft 143 kts 248°
2026-05-03 21:15 50.04483 8.60622 698 ft 145 kts 248°
2026-05-03 21:15 50.04135 8.59176 482 ft 142 kts 248°
2026-05-03 21:15 50.03790 8.57756 370 ft 137 kts 248°
2026-05-03 21:15 50.03509 8.56582 351 ft 88 kts 250°
2026-05-03 21:16 50.03361 8.55967 354 ft 44 kts 249°
2026-05-03 21:16 50.03311 8.55542 342 ft 37 kts 272°
2026-05-03 21:16 50.03340 8.55263 342 ft 7 kts 279°
2026-05-03 21:16 50.03340 8.55258 342 ft 0 kts 279°
2026-05-03 21:17 50.03342 8.55244 342 ft 3 kts 279°
2026-05-03 21:17 50.03345 8.55211 342 ft 6 kts 279°
2026-05-03 21:17 50.03358 8.55090 349 ft 11 kts 279°
2026-05-03 21:17 50.03368 8.54961 342 ft 13 kts 263°
2026-05-03 21:18 50.03333 8.54807 335 ft 17 kts 250°
2026-05-03 21:18 50.03290 8.54627 336 ft 18 kts 249°
2026-05-03 21:18 50.03272 8.54551 336 ft 0 kts 252°
2026-05-03 21:18 50.03272 8.54540 335 ft 2 kts 276°
2026-05-03 21:19 50.03277 8.54516 334 ft 3 kts 298°
2026-05-03 21:19 50.03302 8.54487 338 ft 7 kts 333°
2026-05-03 21:19 50.03367 8.54450 338 ft 13 kts 340°
2026-05-03 21:19 50.03459 8.54398 344 ft 15 kts 340°
2026-05-03 21:20 50.03564 8.54336 337 ft 19 kts 339°
2026-05-03 21:20 50.03656 8.54319 348 ft 11 kts 44°
2026-05-03 21:20 50.03686 8.54433 345 ft 13 kts 70°
2026-05-03 21:20 50.03718 8.54571 350 ft 14 kts 70°
2026-05-03 21:21 50.03752 8.54719 351 ft 16 kts 70°
2026-05-03 21:21 50.03794 8.54884 356 ft 17 kts 70°
2026-05-03 21:21 50.03824 8.55007 357 ft 19 kts 69°
2026-05-03 21:21 50.03887 8.55273 352 ft 21 kts 69°
2026-05-03 21:22 50.03922 8.55420 349 ft 22 kts 69°
2026-05-03 21:22 50.03979 8.55660 350 ft 25 kts 69°
2026-05-03 21:22 50.04040 8.55915 354 ft 26 kts 70°
2026-05-03 21:22 50.04103 8.56182 358 ft 27 kts 70°
2026-05-03 21:23 50.04168 8.56452 358 ft 26 kts 68°
2026-05-03 21:23 50.04206 8.56602 359 ft 8 kts 70°
2026-05-03 21:23 50.04227 8.56699 363 ft 10 kts 72°
2026-05-03 21:23 50.04260 8.56793 362 ft 10 kts 33°
2026-05-03 21:24 50.04331 8.56824 360 ft 12 kts 12°
2026-05-03 21:24 50.04423 8.56848 362 ft 15 kts
2026-05-03 21:24 50.04537 8.56883 358 ft 18 kts
2026-05-03 21:24 50.04666 8.56945 360 ft 19 kts 25°
2026-05-03 21:25 50.04783 8.57024 357 ft 15 kts 29°
2026-05-03 21:25 50.04813 8.57048 357 ft 2 kts 26°
2026-05-03 21:25 50.04828 8.57060 359 ft 1 kts 26°
2026-05-03 21:25 50.04837 8.57071 361 ft 2 kts 55°
2026-05-03 21:26 50.04838 8.57095 357 ft 4 kts 90°
2026-05-03 21:26 50.04827 8.57140 363 ft 6 kts 117°
2026-05-03 21:26 50.04809 8.57198 360 ft 0 kts 117°